OBJECT B, 60089

Orbit data source: Space-Track

You're viewing an Uncataloged Satellite

Recently launched and/or uncataloged satellites may have evolving metadata. Metadata may include but not limited to: Owner, Maufacturer, Bus, Motor, and Mission.

OBJECT B, 60089 is a satellite owned by CAS (CN) in LEO that was launched on Sat, 22 Jun 2024 UTC via a CHANG ZHENG 2C launch vehicle from the Xichang Space Center, China (XSC). Unknown objects in Earth's orbit typically refer to objects detected orbiting the Earth but have not yet been identified or cataloged. These objects could be anything from previously untracked satellites, spent rocket stages, debris from satellite collisions, or even natural meteoroids temporarily captured by Earth's gravity.

Loading next visibility...
OBJECT B details
Identifier
60089, 2024-116B
Orbit
LEO
Last TLE update22 hours ago
Origin
Flag of CNCAS (CN / PRC)
ManufacturerIMI/CAS
MissionOperational Civil Astronomy
Bus & MotorHUNTER, Unknown motor
Mass~20 kg wet, ~20 kg dry
Launch date (UTC)
2024-06-22 (7 months ago)
Launch vehicle
CHANG ZHENG 2C
Launch site
Xichang Space Center, China (XSC)
Object typeUnknown
Shape & HBRBox + 2 Pan + 1 Rod, 0.5 m
Radar Cross Section0.098 m², Large (>1 m²)

Expand to show TLE details & history

TLE from 22 hours ago
0 OBJECT B
1 60089U 24116B   25014.71980464  .00002387  00000-0  28396-3 0  9999
2 60089  28.9945 149.2880 0005482 152.6168 207.4714 14.81296943 30580
Epoch: 2025-01-14T17:16Z
Definitive object data (Epoch: 2025-01-14T17:16:31.12Z)
Latitude-0.00004°
Longitude135.7358°
Altitude626.978 km
Speed7.546 km/s
True Right ascension09h 57m 09s
True Declination0° 00' 00"
Sunlit
Object was in full shadow at TLE epoch
Visualization TLE readout
Latitude10.7954°
Longitude-69.97539°
Altitude618.977 km
Speed7.555 km/s
Apparent Right ascension23h 02m 06s
Apparent Declination-22° 07' 23"
Sunlit
Object is in daylight
Visualization observer readout
Local Sidereal Time15:41:02
Azimuth95.451° ESE
Elevation-29.195°
Doppler factor1
Orbital elements
Apogee altitude633.153 km
Perigee altitude625.47 km
Semi-major axis7,007.449 km
Eccentricity0.0005482
Inclination28.9945°
RAAN149.288°
Arg. of periapsis152.6168°
True anomaly207.44244°
Mean anomaly207.4714°
Eccentric anomaly207.45692°
Mean motion3.70001 °/min
BSTAR0.00028396
Orbital period97.3 mins
Loading maneuver chart data...
Loading historical data...
Loading historical data...
Loading historical data...
Loading historical data...
Loading historical data...
Loading historical data...
Loading historical data...
Other satellites on launch #116 in the year 2024 (2024-06-22 UTC)

OBJECT B Visibility forecast

Observer location: undefined°, undefined

Span
Click to sort rows by Start time (UTC) header in descending order
Start Az.
Max El. time (UTC)
Max El. Az.
Max El.
End time (UTC)
End Az.
5 mins2025-01-15 16:21:15.273Z228.783° WSW2025-01-15 16:24:15.273Z186.643° SSW15.753°2025-01-15 16:26:15.273Z158.687° S
4 mins2025-01-16 13:15:15.273Z196.547° SSW2025-01-16 13:17:15.273Z164.369° S17.2°2025-01-16 13:19:15.273Z135.536° SSE
|